This is the latest recevied weather packets stored in our database for station/object KG5TTF. If no packets are shown the sender has not sent any weather packets the latest 10 day(s).
| Time | Temp. | Humidity | Pressure | Rain* | Wind** | Luminosity | Snow |
|---|---|---|---|---|---|---|---|
| 1777943633 | 12.22° C | 45% | 1014.8 hPa | 0 mm | - | 11 W/m² | - |
| 1777943329 | 12.78° C | 45% | 1014.7 hPa | 0 mm | - | 17 W/m² | - |
| 1777943025 | 12.78° C | 44% | 1014.6 hPa | 0 mm | - | 20 W/m² | - |
| 1777942721 | 12.78° C | 43% | 1014.4 hPa | 0 mm | - | 26 W/m² | - |
| 1777942418 | 12.78° C | 43% | 1014.6 hPa | 0 mm | - | 27 W/m² | - |
| 1777942116 | 13.33° C | 41% | 1014.3 hPa | 0 mm | - | 33 W/m² | - |
| 1777941812 | 13.89° C | 39% | 1014.3 hPa | 0 mm | - | 28 W/m² | - |
| 1777941510 | 13.89° C | 37% | 1014.3 hPa | 0 mm | - | 46 W/m² | - |
| 1777941206 | 13.89° C | 37% | 1014.1 hPa | 0 mm | - | 55 W/m² | - |
| 1777940902 | 13.89° C | 37% | 1014.2 hPa | 0 mm | - | 60 W/m² | - |
| 1777940599 | 13.89° C | 36% | 1014.2 hPa | 0 mm | - | 56 W/m² | - |
| 1777940298 | 14.44° C | 35% | 1014.1 hPa | 0 mm | - | 63 W/m² | - |
| 1777939994 | 14.44° C | 35% | 1014 hPa | 0 mm | - | 71 W/m² | - |
| 1777939692 | 14.44° C | 35% | 1014 hPa | 0 mm | - | 80 W/m² | - |
| 1777939390 | 14.44° C | 36% | 1014.1 hPa | 0 mm | - | 80 W/m² | - |
| 1777939086 | 14.44° C | 35% | 1014.3 hPa | 0 mm | - | 77 W/m² | - |
| 1777938782 | 14.44° C | 36% | 1014.2 hPa | 0 mm | - | 98 W/m² | - |
| 1777938479 | 13.89° C | 37% | 1014.3 hPa | 0 mm | - | 105 W/m² | - |
| 1777938177 | 13.89° C | 37% | 1014.3 hPa | 0 mm | - | 91 W/m² | - |
| 1777937873 | 13.89° C | 40% | 1014.3 hPa | 0 mm | - | 92 W/m² | - |
| 1777937569 | 14.44° C | 40% | 1014.3 hPa | 0 mm | - | 109 W/m² | - |
| 1777937267 | 14.44° C | 35% | 1014 hPa | 0 mm | - | 93 W/m² | - |
| 1777936963 | 14.44° C | 34% | 1014.2 hPa | 0 mm | - | 80 W/m² | - |
| 1777936660 | 15° C | 34% | 1013.8 hPa | 0 mm | - | 75 W/m² | - |
| 1777936356 | 15° C | 34% | 1013.5 hPa | 0 mm | - | 98 W/m² | - |
* Rain latest hour (hover to see other rain measurements)
** Current wind speed in m/s (hover to see current wind gust speed)